Regional Weather Roundup
Issued by NWS

Home | Current Version | Previous Version | Graphics & Text | Print | Product List | Glossary On
Versions: 1 2 3 4 5 6 7 8 9 10 11 12 13 14 15 16 17 18 19 20 21 22 23 24 25 26 27 28 29 30 31 32 33 34 35 36 37 38 39 40 41 42 43 44 45 46 47 48 49 50
000
ASUS45 KSLC 220710
RWRUT

UTAH REGIONAL WEATHER ROUNDUP
NATIONAL WEATHER SERVICE SALT LAKE CITY UT
100 AM MDT FRI MAY 22 2015

UTZ001>011-023>025-220800-

NORTHERN UTAH

CITY           SKY/WX    TMP DP  RH WIND       PRES   REMARKS
BRIGHAM CITY   CLOUDY    54  44  70 NW5       29.91R
HILL AFB       MOCLDY    53  43  70 E9        29.91S
LOGAN          CLEAR     49  45  86 SW5       29.93R
OGDEN          MOCLDY    53  44  71 NW5       29.90R
PROVO AIRPORT  MOCLDY    48  43  81 SE6       29.92R
SALT LAKE CITY CLOUDY    56  48  74 NW3       29.90R
VERNAL         CLOUDY    54  41  61 W5        29.95R
WENDOVER       CLOUDY    54  46  76 E3        29.92R
HEBER CITY     PTCLDY    39  37  93 E5        29.98S
WEST JORDAN    PTCLDY    55  45  67 CALM      29.92R

$$

UTZ012>022-026-027-220800-

SOUTHERN/CENTRAL UTAH

CITY           SKY/WX    TMP DP  RH WIND       PRES   REMARKS
BLANDING       MOCLDY    54  41  61 NE13G18   30.04R
BRYCE CANYON   MOCLDY    34  28  79 W6        30.02S WCI  29
CEDAR CITY     CLOUDY    49  27  42 SW5       29.93R
DELTA          MOCLDY    53  43  66 CALM      29.92S
HANKSVILLE     CLOUDY    61  32  33 CALM      29.89R
MILFORD        CLOUDY    59  32  36 CALM      29.91S
MOAB/CYNLANDS  CLOUDY    61  40  45 S10       29.88R
PRICE          PTCLDY    53  33  46 N10       29.92S
ST GEORGE      MOSUNNY   63  27  25 SE3       29.84S
KANAB          PTCLDY    46  30  53 NE5       29.96R

$$

REGIONAL REPORTS     COLORADO/ARIZONA

CITY           SKY/WX    TMP DP  RH WIND       PRES   REMARKS
CRAIG, CO      LGT RAIN  51  39  63 S12G21    29.99R
GRAND JUNCTION CLOUDY    54  43  66 S12       29.92S
RIFLE          CLOUDY    54  44  69 W5        29.97R
MONTROSE       CLOUDY    53  43  68 SE9       30.02R
CORTEZ         CLEAR     49  41  74 NW7       30.01S
PAGE, AZ       NOT AVBL
GRAND CANYON   CLEAR     33  30  88 NE3       30.02R
KINGMAN        CLEAR     58  28  32 S8        29.87S
FLAGSTAFF      CLEAR     36  28  73 CALM      30.04R

$$

REGIONAL REPORTS    NEVADA/IDAHO/WYOMING

CITY           SKY/WX    TMP DP  RH WIND       PRES   REMARKS
LAS VEGAS, NV  PTCLDY    69  34  27 S10       29.74R
ELY            CLOUDY    41  36  82 S9        29.97R
ELKO           CLOUDY    49  44  83 SW8       29.92F
POCATELLO, ID  CLOUDY    51  49  92 NE5       29.94S
BURLEY         CLOUDY    55  43  63 CALM      29.89F
EVANSTON, WY   MOCLDY    41  37  86 E7        30.01S
ROCK SPRINGS   LGT RAIN  44  40  85 SE10      30.04R
KEMMERER       CLOUDY    41  37  87 NE7       30.02F

$$


USA.gov is the U.S. government's official web portal to all federal, state and local government web resources and services.